Orbital Elements at Epoch 2459200.5 (2020-Dec-17.0) TDB
Reference: JPL 17 (heliocentric ecliptic J2000)
Element | Value | Uncertainty (1-sigma) | Units |
e | .1495509168387623 | 5.6878e-08 | |
a | 2.465774700260759 | 1.3371e-08 | au |
q | 2.097015833118938 | 1.4623e-07 | au |
i | 5.621857595270784 | 4.575e-06 | deg |
node | 137.8203617422217 | 4.9968e-05 | deg |
peri | 34.92545380074481 | 5.2289e-05 | deg |
M | 234.5671737215898 | 1.9031e-05 | deg |
tp | 2459693.262015003085 (2022-Apr-23.76201500) | 7.7128e-05 | TDB |
period | 1414.257580446819 3.87 | 1.1503e-05 3.149e-08 | d yr |
n | .2545505182204942 | 2.0705e-09 | deg/d |
Q | 2.83453356740258 | 1.537e-08 | au |
|
| | Orbit Determination Parameters
Additional Information
|